This demonstration page uses our WeatherBlox Daily Observations layout. Learn more.

Left ArrowRight Arrow

Hourly Observations for May 28, 2022

Temp ( °F °C ) Dew Point ( °F °C ) Humidity (%) Winds ( mph kmh ) Pressure ( in mb ) Visibility ( mi km ) Precip ( " mm )
12:59 am 00:59 Mostly Cloudy 72 22.2 67 19.4 84 84 SSW 14 22 29.83 1010 10 16 0.00 0.00
1:59 am 01:59 Mostly Cloudy 71 21.7 67 19.4 87 87 SSW 9 15 29.82 1010 10 16 0.00 0.00
2:38 am 02:38 Cloudy 71 21.7 67 19.4 87 87 W 5 7 29.81 1009 10 16 0.00 0.00
2:59 am 02:59 Cloudy 72 22.2 67 19.4 84 84 SW 9 15 29.80 1009 10 16 0.00 0.00
3:59 am 03:59 Cloudy with Light Rain 71 21.7 69 20.6 94 94 W 12 19 29.80 1009 6 10 0.00 0.00
4:06 am 04:06 Mostly Cloudy with Light Rain N/A N/A N/A W 8 13 N/A 10 16 0.00 0.00
4:59 am 04:59 Partly Cloudy 69 20.6 64 17.8 84 84 W 3 6 29.79 1009 10 16 0.01 0.25
5:59 am 05:59 Cloudy 69 20.6 66 18.9 90 90 S 3 6 29.81 1009 10 16 0.00 0.00
6:59 am 06:59 Partly Cloudy 66 18.9 64 17.8 93 93 SW 6 9 29.84 1011 9 14 0.00 0.00
7:59 am 07:59 Partly Cloudy 66 18.9 63 17.2 90 90 W 7 11 29.84 1011 10 16 0.00 0.00
8:59 am 08:59 Partly Cloudy 66 18.9 63 17.2 90 90 W 12 19 29.86 1011 10 16 0.00 0.00
9:59 am 09:59 Partly Cloudy 72 22.2 62 16.7 71 71 WSW 9 15 29.87 1012 10 16 0.00 0.00
10:59 am 10:59 Partly Cloudy 73 22.8 62 16.7 69 69 W 9 15 29.87 1012 10 16 0.00 0.00
11:59 am 11:59 Partly Cloudy 73 22.8 62 16.7 69 69 WNW 9 15 29.87 1011 10 16 0.00 0.00
12:59 pm 12:59 Partly Cloudy 76 24.4 61 16.1 60 60 W 10 17 29.87 1012 10 16 0.00 0.00
1:59 pm 13:59 Partly Cloudy 79 26.1 59 15 50 50 W 10 17 29.87 1011 10 16 0.00 0.00
2:59 pm 14:59 Partly Cloudy 79 26.1 57 13.9 47 47 W 10 17 29.87 1012 10 16 0.00 0.00
3:59 pm 15:59 Mostly Cloudy 79 26.1 57 13.9 47 47 W 9 15 29.86 1011 10 16 0.00 0.00
4:59 pm 16:59 Partly Cloudy 80 26.7 57 13.9 45 45 W 9 15 29.86 1011 10 16 0.00 0.00
5:59 pm 17:59 Partly Cloudy 80 26.7 59 15 49 49 WNW 13 20 29.88 1012 10 16 0.00 0.00
6:59 pm 18:59 Mostly Sunny 79 26.1 57 13.9 47 47 W 12 19 29.89 1012 10 16 0.00 0.00
7:59 pm 19:59 Mostly Sunny 78 25.6 58 14.4 50 50 W 7 11 29.90 1012 10 16 0.00 0.00
8:59 pm 20:59 Clear 76 24.4 63 17.2 64 64 W 6 9 29.91 1013 10 16 0.00 0.00
9:59 pm 21:59 Clear 69 20.6 65 18.3 87 87 Calm 29.95 1014 10 16 0.00 0.00
10:59 pm 22:59 Mostly Clear 67 19.4 65 18.3 93 93 Calm 29.96 1015 10 16 0.00 0.00
11:59 pm 23:59 Partly Cloudy 67 19.4 66 18.9 97 97 SW 3 6 29.98 1015 10 16 0.00 0.00

Powered by AerisWeather